This is the latest recevied weather packets stored in our database for station/object DB0BGL. If no packets are shown the sender has not sent any weather packets the latest 10 day(s).
| Time | Temp. | Humidity | Pressure | Rain* | Wind** | Luminosity | Snow |
|---|---|---|---|---|---|---|---|
| 1777547946 | 6.67° C | 55% | 0 hPa | 0 mm | - | - | - |
| 1777547345 | 5.56° C | 59% | 0 hPa | 0 mm | - | - | - |
| 1777545543 | 3.89° C | 64% | 0 hPa | 0 mm | - | - | - |
| 1777544943 | 3.89° C | 63% | 0 hPa | 0 mm | - | - | - |
| 1777544342 | 4.44° C | 63% | 0 hPa | 0 mm | - | - | - |
| 1777543741 | 4.44° C | 60% | 0 hPa | 0 mm | - | - | - |
| 1777543141 | 5° C | 61% | 0 hPa | 0 mm | - | - | - |
| 1777541940 | 5.56° C | 53% | 0 hPa | 0 mm | - | - | - |
| 1777541387 | 6.11° C | 54% | 0 hPa | 0 mm | - | - | - |
| 1777541339 | 6.11° C | 54% | 0 hPa | 0 mm | - | - | - |
| 1777540739 | 6.11° C | 57% | 0 hPa | 0 mm | - | - | - |
| 1777540138 | 6.11° C | 100% | 0 hPa | 0 mm | - | - | - |
| 1777539537 | 5.56° C | 56% | 0 hPa | 0 mm | - | - | - |
| 1777538979 | 6.11° C | 56% | 0 hPa | 0 mm | - | - | - |
| 1777538937 | 6.11° C | 56% | 0 hPa | 0 mm | - | - | - |
| 1777538336 | 7.22° C | 53% | 0 hPa | 0 mm | - | - | - |
| 1777537736 | 8.89° C | 48% | 0 hPa | 0 mm | - | - | - |
| 1777537135 | 10° C | 47% | 0 hPa | 0 mm | - | - | - |
| 1777536534 | 10.56° C | 45% | 0 hPa | 0 mm | - | - | - |
| 1777535934 | 10° C | 45% | 0 hPa | 0 mm | - | - | - |
| 1777535412 | 9.44° C | 47% | 0 hPa | 0 mm | - | - | - |
| 1777534733 | 8.33° C | 50% | 0 hPa | 0 mm | - | - | - |
| 1777534132 | 7.22° C | 53% | 0 hPa | 0 mm | - | - | - |
| 1777533532 | 8.33° C | 50% | 0 hPa | 0 mm | - | - | - |
| 1777532931 | 10° C | 45% | 0 hPa | 0 mm | - | - | - |
* Rain latest hour (hover to see other rain measurements)
** Current wind speed in m/s (hover to see current wind gust speed)